Station Historical Data
Daily Summary for May 10, 2011 Units:  English    Metric   Both
« Previous Day
Next Day »
Daily Weekly Monthly Yearly Custom
  High: Low: Average:
Temperature: 86.7 °F 65.5 °F 76.3 °F
Dew Point: 72.5 °F 63.4 °F 67.5 °F
Humidity: 94% 53% 76%
Wind Speed: 10.0mph 0.0mph 3mph
Wind Gust: 12.0mph - -
Wind- - South
Pressure: 29.92 in 29.82 in -
Precipitation: 0.00 in    
Historical Graphs
 
 
Tabular Data for May 10, 2011
Time Temperature Dew Point Pressure Wind Wind Speed Wind Gust Humidity Rainfall Rate (Hourly) Conditions
00:00 71.1 °F 66.4 °F 29.85 in SSE 2.0 mph 3.0 mph 85% 0.00 in
00:01 71.1 °F 66.4 °F 29.85 in SSE 3.0 mph 3.0 mph 85% 0.00 in
00:07 70.8 °F 66.4 °F 29.84 in SSE 2.0 mph 2.0 mph 86% 0.00 in
00:08 70.7 °F 66.3 °F 29.85 in SSE 2.0 mph 2.0 mph 86% 0.00 in
00:12 70.6 °F 66.2 °F 29.85 in SSE 2.0 mph 3.0 mph 86% 0.00 in
00:14 70.6 °F 66.2 °F 29.85 in South 3.0 mph 3.0 mph 86% 0.00 in
00:17 70.6 °F 66.2 °F 29.85 in SE 2.0 mph 3.0 mph 86% 0.00 in
00:22 70.6 °F 66.2 °F 29.85 in SSE 3.0 mph 3.0 mph 86% 0.00 in
00:27 70.5 °F 66.1 °F 29.85 in SSE 2.0 mph 3.0 mph 86% 0.00 in
00:29 70.5 °F 66.4 °F 29.85 in SE 2.0 mph 3.0 mph 87% 0.00 in
00:32 70.5 °F 66.1 °F 29.85 in SE 3.0 mph 3.0 mph 86% 0.00 in
00:35 70.4 °F 66.3 °F 29.84 in SE 3.0 mph 3.0 mph 87% 0.00 in
00:36 70.4 °F 66.3 °F 29.84 in South 3.0 mph 3.0 mph 87% 0.00 in
00:38 70.3 °F 66.2 °F 29.84 in SSE 2.0 mph 3.0 mph 87% 0.00 in
00:41 70.3 °F 66.2 °F 29.84 in SE 2.0 mph 3.0 mph 87% 0.00 in
00:44 70.3 °F 66.2 °F 29.84 in South 2.0 mph 4.0 mph 87% 0.00 in
00:47 70.3 °F 66.2 °F 29.85 in SE 2.0 mph 4.0 mph 87% 0.00 in
00:52 70.4 °F 66.3 °F 29.84 in SSE 4.0 mph 4.0 mph 87% 0.00 in
00:57 70.5 °F 66.4 °F 29.85 in SSE 3.0 mph 4.0 mph 87% 0.00 in
01:02 70.5 °F 66.4 °F 29.84 in SSE 3.0 mph 5.0 mph 87% 0.00 in
01:03 70.5 °F 66.4 °F 29.84 in SSE 2.0 mph 5.0 mph 87% 0.00 in
01:07 70.5 °F 66.4 °F 29.84 in SE 2.0 mph 5.0 mph 87% 0.00 in
01:08 70.6 °F 66.6 °F 29.84 in SSE 3.0 mph 5.0 mph 87% 0.00 in
01:09 70.6 °F 66.6 °F 29.84 in SSE 4.0 mph 4.0 mph 87% 0.00 in
01:12 70.6 °F 66.2 °F 29.84 in South 2.0 mph 4.0 mph 86% 0.00 in
01:17 70.9 °F 66.5 °F 29.84 in South 3.0 mph 5.0 mph 86% 0.00 in
01:22 70.9 °F 66.5 °F 29.84 in SW 5.0 mph 5.0 mph 86% 0.00 in
01:28 71.0 °F 66.6 °F 29.84 in South 2.0 mph 5.0 mph 86% 0.00 in
01:33 71.1 °F 66.4 °F 29.84 in South 2.0 mph 5.0 mph 85% 0.00 in
01:37 71.1 °F 66.4 °F 29.84 in South 6.0 mph 6.0 mph 85% 0.00 in
01:38 71.1 °F 66.4 °F 29.84 in South 4.0 mph 6.0 mph 85% 0.00 in
01:43 71.2 °F 66.5 °F 29.84 in SW 3.0 mph 6.0 mph 85% 0.00 in
01:48 71.2 °F 66.5 °F 29.84 in SSW 4.0 mph 5.0 mph 85% 0.00 in
01:53 71.4 °F 66.3 °F 29.84 in SSE 2.0 mph 5.0 mph 84% 0.00 in
01:54 71.4 °F 66.3 °F 29.84 in South 3.0 mph 5.0 mph 84% 0.00 in
01:58 71.4 °F 66.3 °F 29.84 in South 4.0 mph 6.0 mph 84% 0.00 in
02:03 71.4 °F 66.3 °F 29.84 in SSW 4.0 mph 6.0 mph 84% 0.00 in
02:08 71.4 °F 66.3 °F 29.83 in South 3.0 mph 5.0 mph 84% 0.00 in
02:13 71.2 °F 66.1 °F 29.83 in SSE 2.0 mph 5.0 mph 84% 0.00 in
02:18 71.2 °F 66.1 °F 29.83 in SE 3.0 mph 5.0 mph 84% 0.00 in
02:23 71.1 °F 66.0 °F 29.83 in SSE 2.0 mph 5.0 mph 84% 0.00 in
02:28 70.9 °F 66.2 °F 29.83 in SSW 2.0 mph 5.0 mph 85% 0.00 in
02:29 70.9 °F 66.2 °F 29.83 in SSE 4.0 mph 5.0 mph 85% 0.00 in
02:34 70.8 °F 66.1 °F 29.83 in South 3.0 mph 4.0 mph 85% 0.00 in
02:39 70.6 °F 65.9 °F 29.83 in South 3.0 mph 4.0 mph 85% 0.00 in
02:40 70.5 °F 65.8 °F 29.83 in South 1.0 mph 4.0 mph 85% 0.00 in
02:45 70.3 °F 65.6 °F 29.83 in SE 3.0 mph 3.0 mph 85% 0.00 in
02:46 70.2 °F 65.5 °F 29.83 in SSE 2.0 mph 3.0 mph 85% 0.00 in
02:50 70.1 °F 65.7 °F 29.83 in SW 3.0 mph 3.0 mph 86% 0.00 in
02:51 70.0 °F 65.6 °F 29.83 in SSE 2.0 mph 3.0 mph 86% 0.00 in
02:55 69.8 °F 65.4 °F 29.83 in South 2.0 mph 3.0 mph 86% 0.00 in
02:56 69.7 °F 65.3 °F 29.83 in SSE 1.0 mph 3.0 mph 86% 0.00 in
02:59 69.7 °F 65.7 °F 29.83 in South 2.0 mph 3.0 mph 87% 0.00 in
03:01 69.7 °F 65.7 °F 29.83 in SSE 2.0 mph 3.0 mph 87% 0.00 in
03:06 69.5 °F 65.5 °F 29.83 in South 2.0 mph 3.0 mph 87% 0.00 in
03:11 69.1 °F 65.1 °F 29.82 in South 2.0 mph 3.0 mph 87% 0.00 in
03:16 68.8 °F 65.1 °F 29.82 in SSE 1.0 mph 3.0 mph 88% 0.00 in
03:17 68.8 °F 65.1 °F 29.82 in SSE 1.0 mph 3.0 mph 88% 0.00 in
03:22 68.8 °F 65.1 °F 29.82 in South 2.0 mph 3.0 mph 88% 0.00 in
03:27 68.8 °F 65.1 °F 29.82 in South 2.0 mph 3.0 mph 88% 0.00 in
03:29 68.8 °F 65.1 °F 29.82 in South 2.0 mph 2.0 mph 88% 0.00 in
03:30 68.8 °F 65.1 °F 29.82 in SSE 1.0 mph 2.0 mph 88% 0.00 in
03:34 68.7 °F 65.3 °F 29.82 in South 2.0 mph 3.0 mph 89% 0.00 in
03:35 68.7 °F 65.3 °F 29.82 in SSE 1.0 mph 3.0 mph 89% 0.00 in
03:40 68.7 °F 65.0 °F 29.82 in SSW 3.0 mph 3.0 mph 88% 0.00 in
03:41 68.7 °F 65.3 °F 29.82 in SSE 2.0 mph 3.0 mph 89% 0.00 in
03:46 68.4 °F 65.0 °F 29.82 in SSE 1.0 mph 2.0 mph 89% 0.00 in
03:51 68.3 °F 64.9 °F 29.82 in SSE 1.0 mph 2.0 mph 89% 0.00 in
03:52 68.3 °F 64.9 °F 29.82 in SSW 2.0 mph 2.0 mph 89% 0.00 in
03:56 68.0 °F 65.0 °F 29.82 in SSE 1.0 mph 1.0 mph 90% 0.00 in
03:57 68.0 °F 65.0 °F 29.82 in SSE 1.0 mph 1.0 mph 90% 0.00 in
03:58 67.9 °F 64.9 °F 29.82 in SSE 1.0 mph 1.0 mph 90% 0.00 in
04:03 67.7 °F 64.7 °F 29.83 in SSE 1.0 mph 1.0 mph 90% 0.00 in
04:04 67.7 °F 64.7 °F 29.83 in Calm   1.0 mph 90% 0.00 in
04:09 67.5 °F 64.8 °F 29.82 in SSE 1.0 mph 1.0 mph 91% 0.00 in
04:14 67.4 °F 64.7 °F 29.82 in SSE 1.0 mph 1.0 mph 91% 0.00 in
04:19 67.2 °F 64.5 °F 29.83 in Calm   1.0 mph 91% 0.00 in
04:24 67.1 °F 64.7 °F 29.82 in SE 1.0 mph 1.0 mph 92% 0.00 in
04:29 67.1 °F 64.7 °F 29.82 in SE 1.0 mph 3.0 mph 92% 0.00 in
04:30 67.1 °F 64.7 °F 29.82 in SE 2.0 mph 3.0 mph 92% 0.00 in
04:31 67.1 °F 64.7 °F 29.83 in SE 1.0 mph 2.0 mph 92% 0.00 in
04:34 67.1 °F 64.4 °F 29.83 in SE 1.0 mph 2.0 mph 91% 0.00 in
04:36 67.0 °F 64.6 °F 29.83 in SE 1.0 mph 1.0 mph 92% 0.00 in
04:40 66.9 °F 64.5 °F 29.83 in SE 1.0 mph 1.0 mph 92% 0.00 in
04:45 66.7 °F 64.3 °F 29.82 in SE 2.0 mph 2.0 mph 92% 0.00 in
04:50 66.7 °F 64.3 °F 29.82 in SE 2.0 mph 2.0 mph 92% 0.00 in
04:51 66.7 °F 64.3 °F 29.83 in SE 2.0 mph 3.0 mph 92% 0.00 in
04:53 66.8 °F 64.4 °F 29.83 in SE 2.0 mph 4.0 mph 92% 0.00 in
04:55 66.8 °F 64.4 °F 29.83 in SE 2.0 mph 4.0 mph 92% 0.00 in
04:57 66.8 °F 64.4 °F 29.83 in SE 2.0 mph 2.0 mph 92% 0.00 in
04:58 66.8 °F 64.4 °F 29.83 in SSE 1.0 mph 2.0 mph 92% 0.00 in
05:02 66.7 °F 64.3 °F 29.83 in SSE 1.0 mph 2.0 mph 92% 0.00 in
05:07 66.5 °F 64.1 °F 29.83 in SSE 2.0 mph 3.0 mph 92% 0.00 in
05:12 66.4 °F 64.3 °F 29.83 in SSE 2.0 mph 2.0 mph 93% 0.00 in
05:13 66.4 °F 64.3 °F 29.83 in SE 3.0 mph 3.0 mph 93% 0.00 in
05:18 66.4 °F 64.0 °F 29.83 in SSE 2.0 mph 3.0 mph 92% 0.00 in
05:23 66.2 °F 64.1 °F 29.83 in SE 2.0 mph 3.0 mph 93% 0.00 in
05:28 66.2 °F 64.1 °F 29.83 in South 2.0 mph 2.0 mph 93% 0.00 in
05:29 66.2 °F 64.1 °F 29.83 in SSE 2.0 mph 3.0 mph 93% 0.00 in
05:34 66.3 °F 64.2 °F 29.83 in SSE 2.0 mph 4.0 mph 93% 0.00 in
05:36 66.4 °F 64.3 °F 29.83 in SE 2.0 mph 3.0 mph 93% 0.00 in
05:41 66.6 °F 64.2 °F 29.83 in SE 1.0 mph 3.0 mph 92% 0.00 in
05:46 66.6 °F 64.2 °F 29.83 in SE 1.0 mph 2.0 mph 92% 0.00 in
05:51 66.5 °F 64.1 °F 29.83 in SSE 2.0 mph 2.0 mph 92% 0.00 in
05:53 66.5 °F 64.1 °F 29.83 in SSE 3.0 mph 4.0 mph 92% 0.00 in
05:57 66.4 °F 64.0 °F 29.83 in SSE 3.0 mph 3.0 mph 92% 0.00 in
05:58 66.4 °F 64.0 °F 29.83 in SE 3.0 mph 3.0 mph 92% 0.00 in
06:03 66.3 °F 63.9 °F 29.84 in SSE 2.0 mph 2.0 mph 92% 0.00 in
06:06 66.3 °F 64.2 °F 29.84 in SE 2.0 mph 3.0 mph 93% 0.00 in
06:08 66.3 °F 64.2 °F 29.84 in SE 2.0 mph 2.0 mph 93% 0.00 in
06:13 66.3 °F 63.9 °F 29.84 in SE 1.0 mph 2.0 mph 92% 0.00 in
06:14 66.3 °F 64.2 °F 29.84 in SE 1.0 mph 2.0 mph 93% 0.00 in
06:18 66.2 °F 64.1 °F 29.84 in SSE 1.0 mph 2.0 mph 93% 0.00 in
06:23 66.0 °F 63.9 °F 29.84 in SSE 2.0 mph 2.0 mph 93% 0.00 in
06:28 65.9 °F 63.8 °F 29.84 in SE 1.0 mph 2.0 mph 93% 0.00 in
06:33 66.0 °F 63.9 °F 29.85 in SE 2.0 mph 3.0 mph 93% 0.00 in
06:34 66.0 °F 63.9 °F 29.85 in SSE 1.0 mph 3.0 mph 93% 0.00 in
06:35 66.0 °F 63.9 °F 29.85 in ESE 1.0 mph 3.0 mph 93% 0.00 in
06:36 66.0 °F 63.9 °F 29.85 in SE 3.0 mph 3.0 mph 93% 0.00 in
06:41 66.4 °F 64.3 °F 29.85 in SE 3.0 mph 4.0 mph 93% 0.00 in
06:46 66.3 °F 63.9 °F 29.85 in ESE 4.0 mph 4.0 mph 92% 0.00 in
06:51 66.1 °F 63.7 °F 29.85 in East 3.0 mph 4.0 mph 92% 0.00 in
06:53 66.0 °F 63.6 °F 29.85 in ESE 4.0 mph 4.0 mph 92% 0.00 in
06:57 65.9 °F 63.5 °F 29.85 in ESE 2.0 mph 4.0 mph 92% 0.00 in
06:58 65.8 °F 63.4 °F 29.86 in East 3.0 mph 4.0 mph 92% 0.00 in
07:02 65.8 °F 63.4 °F 29.86 in East 1.0 mph 3.0 mph 92% 0.00 in
07:07 65.7 °F 63.6 °F 29.86 in East 2.0 mph 3.0 mph 93% 0.00 in
07:12 65.6 °F 63.5 °F 29.86 in Calm   3.0 mph 93% 0.00 in
07:17 65.5 °F 63.4 °F 29.86 in East 1.0 mph 2.0 mph 93% 0.00 in
07:22 65.5 °F 63.7 °F 29.87 in East 1.0 mph 2.0 mph 94% 0.00 in
07:27 65.5 °F 63.7 °F 29.87 in ESE 2.0 mph 2.0 mph 94% 0.00 in
07:28 65.5 °F 63.7 °F 29.87 in ESE 2.0 mph 2.0 mph 94% 0.00 in
07:30 65.5 °F 63.7 °F 29.87 in ESE 2.0 mph 3.0 mph 94% 0.00 in
07:33 65.5 °F 63.7 °F 29.87 in East 4.0 mph 4.0 mph 94% 0.00 in
07:35 65.6 °F 63.8 °F 29.87 in ESE 1.0 mph 4.0 mph 94% 0.00 in
07:38 65.7 °F 63.6 °F 29.87 in ESE 2.0 mph 3.0 mph 93% 0.00 in
07:41 65.8 °F 64.0 °F 29.87 in SE 1.0 mph 3.0 mph 94% 0.00 in
07:46 66.3 °F 64.2 °F 29.87 in SE 3.0 mph 4.0 mph 93% 0.00 in
07:51 66.8 °F 64.7 °F 29.88 in SE 1.0 mph 2.0 mph 93% 0.00 in
07:54 67.1 °F 64.7 °F 29.88 in SE 1.0 mph 2.0 mph 92% 0.00 in
07:56 67.3 °F 64.9 °F 29.88 in Calm   1.0 mph 92% 0.00 in
07:57 67.4 °F 65.0 °F 29.88 in SE 2.0 mph 2.0 mph 92% 0.00 in
07:59 67.7 °F 65.3 °F 29.88 in ESE 2.0 mph 3.0 mph 92% 0.00 in
08:04 68.2 °F 65.2 °F 29.88 in SSE 2.0 mph 5.0 mph 90% 0.00 in
08:09 68.5 °F 65.1 °F 29.88 in SE 4.0 mph 5.0 mph 89% 0.00 in
08:14 69.0 °F 65.6 °F 29.89 in SE 3.0 mph 4.0 mph 89% 0.00 in
08:19 69.3 °F 65.9 °F 29.89 in SE 3.0 mph 5.0 mph 89% 0.00 in
08:24 69.8 °F 65.8 °F 29.89 in SE 3.0 mph 5.0 mph 87% 0.00 in
08:26 69.9 °F 65.9 °F 29.89 in SSE 3.0 mph 5.0 mph 87% 0.00 in
08:30 70.3 °F 66.2 °F 29.89 in SE 5.0 mph 6.0 mph 87% 0.00 in
08:31 70.4 °F 66.3 °F 29.89 in SSE 5.0 mph 5.0 mph 87% 0.00 in
08:35 70.7 °F 66.3 °F 29.89 in SSE 3.0 mph 6.0 mph 86% 0.00 in
08:36 70.7 °F 66.3 °F 29.89 in SSE 4.0 mph 6.0 mph 86% 0.00 in
08:40 71.2 °F 66.8 °F 29.89 in SE 5.0 mph 5.0 mph 86% 0.00 in
08:41 71.2 °F 66.8 °F 29.89 in SSE 3.0 mph 5.0 mph 86% 0.00 in
08:46 71.6 °F 66.9 °F 29.89 in SSE 2.0 mph 7.0 mph 85% 0.00 in
08:51 71.9 °F 66.8 °F 29.89 in South 2.0 mph 6.0 mph 84% 0.00 in
08:52 71.9 °F 66.8 °F 29.89 in SSW 2.0 mph 6.0 mph 84% 0.00 in
08:57 72.3 °F 67.2 °F 29.89 in South 2.0 mph 4.0 mph 84% 0.00 in
09:00 72.6 °F 67.2 °F 29.89 in South 2.0 mph 5.0 mph 83% 0.00 in
09:02 72.7 °F 67.2 °F 29.89 in South 6.0 mph 6.0 mph 83% 0.00 in
09:05 72.8 °F 67.3 °F 29.89 in SSE 2.0 mph 7.0 mph 83% 0.00 in
09:07 73.1 °F 67.3 °F 29.89 in SW 3.0 mph 4.0 mph 82% 0.00 in
09:10 73.2 °F 67.7 °F 29.90 in SW 3.0 mph 7.0 mph 83% 0.00 in
09:15 73.5 °F 68.0 °F 29.90 in SSE 5.0 mph 6.0 mph 83% 0.00 in
09:20 74.0 °F 68.2 °F 29.90 in South 3.0 mph 7.0 mph 82% 0.00 in
09:25 74.2 °F 68.0 °F 29.90 in South 6.0 mph 6.0 mph 81% 0.00 in
09:26 74.2 °F 68.0 °F 29.90 in SSE 6.0 mph 6.0 mph 81% 0.00 in
09:31 74.6 °F 68.0 °F 29.90 in SSW 6.0 mph 11.0 mph 80% 0.00 in
09:35 74.5 °F 68.3 °F 29.90 in SW 5.0 mph 6.0 mph 81% 0.00 in
09:36 74.5 °F 67.9 °F 29.90 in WSW 4.0 mph 7.0 mph 80% 0.00 in
09:41 74.6 °F 68.4 °F 29.90 in SSW 4.0 mph 7.0 mph 81% 0.00 in
09:42 74.7 °F 68.5 °F 29.90 in SSW 2.0 mph 7.0 mph 81% 0.00 in
09:47 75.1 °F 68.9 °F 29.90 in SW 3.0 mph 7.0 mph 81% 0.00 in
09:52 75.2 °F 68.2 °F 29.90 in SSW 3.0 mph 7.0 mph 79% 0.00 in
09:53 75.3 °F 69.1 °F 29.90 in SW 6.0 mph 6.0 mph 81% 0.00 in
09:54 75.3 °F 68.7 °F 29.90 in West 5.0 mph 6.0 mph 80% 0.00 in
09:57 75.4 °F 68.8 °F 29.90 in WSW 6.0 mph 7.0 mph 80% 0.00 in
10:00 75.7 °F 69.1 °F 29.90 in SW 4.0 mph 8.0 mph 80% 0.00 in
10:02 75.7 °F 68.7 °F 29.90 in South 3.0 mph 7.0 mph 79% 0.00 in
10:07 75.9 °F 68.9 °F 29.90 in SW 5.0 mph 6.0 mph 79% 0.00 in
10:12 76.1 °F 69.1 °F 29.90 in SW 4.0 mph 7.0 mph 79% 0.00 in
10:17 76.5 °F 69.5 °F 29.90 in SW 2.0 mph 5.0 mph 79% 0.00 in
10:18 76.7 °F 69.7 °F 29.90 in WSW 5.0 mph 5.0 mph 79% 0.00 in
10:22 76.8 °F 69.4 °F 29.90 in West 4.0 mph 5.0 mph 78% 0.00 in
10:23 76.8 °F 69.1 °F 29.90 in SW 3.0 mph 6.0 mph 77% 0.00 in
10:27 77.0 °F 69.2 °F 29.90 in West 4.0 mph 8.0 mph 77% 0.00 in
10:29 77.0 °F 68.9 °F 29.90 in WSW 4.0 mph 8.0 mph 76% 0.00 in
10:30 76.9 °F 68.8 °F 29.90 in West 2.0 mph 8.0 mph 76% 0.00 in
10:33 77.0 °F 69.2 °F 29.90 in WSW 6.0 mph 8.0 mph 77% 0.00 in
10:34 77.1 °F 69.3 °F 29.90 in WSW 4.0 mph 6.0 mph 77% 0.00 in
10:35 77.2 °F 70.2 °F 29.90 in WSW 3.0 mph 6.0 mph 79% 0.00 in
10:36 77.3 °F 70.3 °F 29.90 in WSW 4.0 mph 7.0 mph 79% 0.00 in
10:40 77.4 °F 69.2 °F 29.90 in West 3.0 mph 8.0 mph 76% 0.00 in
10:45 77.7 °F 69.5 °F 29.90 in SW 3.0 mph 7.0 mph 76% 0.00 in
10:50 78.1 °F 69.9 °F 29.91 in SW 3.0 mph 5.0 mph 76% 0.00 in
10:51 78.1 °F 69.9 °F 29.91 in SW 3.0 mph 5.0 mph 76% 0.00 in
10:56 78.6 °F 70.8 °F 29.91 in WSW 4.0 mph 7.0 mph 77% 0.00 in
11:01 78.5 °F 69.9 °F 29.91 in WSW 3.0 mph 8.0 mph 75% 0.00 in
11:06 78.6 °F 71.2 °F 29.91 in SSW 4.0 mph 6.0 mph 78% 0.00 in
11:11 79.3 °F 71.1 °F 29.91 in SW 3.0 mph 5.0 mph 76% 0.00 in
11:12 79.4 °F 71.2 °F 29.91 in South 3.0 mph 5.0 mph 76% 0.00 in
11:17 79.5 °F 70.1 °F 29.91 in SW 5.0 mph 6.0 mph 73% 0.00 in
11:22 79.8 °F 71.6 °F 29.91 in WSW 3.0 mph 6.0 mph 76% 0.00 in
11:27 80.4 °F 71.0 °F 29.91 in SSW 2.0 mph 5.0 mph 73% 0.00 in
11:32 80.8 °F 72.5 °F 29.91 in SW 5.0 mph 8.0 mph 76% 0.00 in
11:33 80.8 °F 70.9 °F 29.91 in SSE 5.0 mph 8.0 mph 72% 0.00 in
11:36 80.6 °F 69.9 °F 29.91 in WSW 6.0 mph 9.0 mph 70% 0.00 in
11:39 80.5 °F 70.7 °F 29.91 in WSW 6.0 mph 7.0 mph 72% 0.00 in
11:41 80.7 °F 71.7 °F 29.91 in South 4.0 mph 7.0 mph 74% 0.00 in
11:46 80.9 °F 71.4 °F 29.92 in WSW 7.0 mph 8.0 mph 73% 0.00 in
11:51 80.8 °F 70.1 °F 29.91 in SW 4.0 mph 9.0 mph 70% 0.00 in
11:52 80.8 °F 70.1 °F 29.91 in SSW 5.0 mph 9.0 mph 70% 0.00 in
11:56 80.8 °F 70.1 °F 29.91 in SSW 4.0 mph 7.0 mph 70% 0.00 in
12:01 80.9 °F 70.6 °F 29.91 in West 3.0 mph 7.0 mph 71% 0.00 in
12:06 81.1 °F 71.2 °F 29.91 in West 3.0 mph 9.0 mph 72% 0.00 in
12:11 81.4 °F 70.7 °F 29.91 in SW 2.0 mph 5.0 mph 70% 0.00 in
12:16 81.0 °F 70.3 °F 29.91 in West 2.0 mph 9.0 mph 70% 0.00 in
12:21 81.5 °F 70.8 °F 29.91 in WSW 5.0 mph 8.0 mph 70% 0.00 in
12:26 82.0 °F 71.3 °F 29.91 in SSW 5.0 mph 7.0 mph 70% 0.00 in
12:30 81.5 °F 69.9 °F 29.90 in SW 3.0 mph 10.0 mph 68% 0.00 in
12:31 81.5 °F 70.4 °F 29.90 in WSW 7.0 mph 10.0 mph 69% 0.00 in
12:32 81.3 °F 70.6 °F 29.91 in WSW 4.0 mph 7.0 mph 70% 0.00 in
12:36 81.3 °F 70.6 °F 29.91 in West 5.0 mph 7.0 mph 70% 0.00 in
12:41 81.5 °F 69.9 °F 29.91 in SW 5.0 mph 7.0 mph 68% 0.00 in
12:46 81.8 °F 70.6 °F 29.91 in SW 10.0 mph 10.0 mph 69% 0.00 in
12:47 81.9 °F 70.3 °F 29.91 in SSW 5.0 mph 10.0 mph 68% 0.00 in
12:51 82.3 °F 70.3 °F 29.90 in South 3.0 mph 10.0 mph 67% 0.00 in
12:52 82.4 °F 70.3 °F 29.90 in SSW 3.0 mph 10.0 mph 67% 0.00 in
12:54 82.8 °F 71.2 °F 29.90 in SW 6.0 mph 6.0 mph 68% 0.00 in
12:58 83.2 °F 70.7 °F 29.90 in WSW 8.0 mph 12.0 mph 66% 0.00 in
13:03 82.5 °F 71.3 °F 29.90 in SW 4.0 mph 5.0 mph 69% 0.00 in
13:08 83.2 °F 71.6 °F 29.90 in SSW 5.0 mph 11.0 mph 68% 0.00 in
13:10 83.2 °F 69.8 °F 29.90 in SW 7.0 mph 11.0 mph 64% 0.00 in
13:14 83.2 °F 70.7 °F 29.90 in SW 6.0 mph 9.0 mph 66% 0.00 in
13:15 82.9 °F 70.4 °F 29.90 in WSW 6.0 mph 9.0 mph 66% 0.00 in
13:20 82.6 °F 68.3 °F 29.89 in WSW 4.0 mph 10.0 mph 62% 0.00 in
13:25 82.2 °F 68.8 °F 29.89 in SSW 4.0 mph 7.0 mph 64% 0.00 in
13:30 83.2 °F 70.7 °F 29.89 in SSE 4.0 mph 8.0 mph 66% 0.00 in
13:31 83.4 °F 70.9 °F 29.89 in SW 6.0 mph 8.0 mph 66% 0.00 in
13:33 83.9 °F 70.9 °F 29.89 in SSW 3.0 mph 6.0 mph 65% 0.00 in
13:35 84.2 °F 71.2 °F 29.90 in WSW 5.0 mph 8.0 mph 65% 0.00 in
13:36 84.2 °F 71.2 °F 29.90 in SW 10.0 mph 10.0 mph 65% 0.00 in
13:41 84.0 °F 69.1 °F 29.89 in SSW 4.0 mph 11.0 mph 61% 0.00 in
13:46 84.2 °F 70.2 °F 29.89 in SW 5.0 mph 9.0 mph 63% 0.00 in
13:51 83.6 °F 70.6 °F 29.89 in SW 3.0 mph 7.0 mph 65% 0.00 in
13:52 83.7 °F 70.7 °F 29.89 in SSW 3.0 mph 7.0 mph 65% 0.00 in
13:57 83.9 °F 69.5 °F 29.89 in SW 4.0 mph 6.0 mph 62% 0.00 in
13:58 84.0 °F 70.5 °F 29.89 in WSW 6.0 mph 6.0 mph 64% 0.00 in
14:02 84.1 °F 70.6 °F 29.89 in SSE 4.0 mph 6.0 mph 64% 0.00 in
14:03 84.3 °F 69.9 °F 29.89 in South 3.0 mph 5.0 mph 62% 0.00 in
14:05 84.7 °F 71.6 °F 29.89 in SSW 5.0 mph 5.0 mph 65% 0.00 in
14:10 85.0 °F 70.5 °F 29.89 in SW 5.0 mph 8.0 mph 62% 0.00 in
14:15 85.3 °F 70.8 °F 29.89 in SSW 3.0 mph 7.0 mph 62% 0.00 in
14:20 84.6 °F 69.7 °F 29.88 in WSW 6.0 mph 7.0 mph 61% 0.00 in
14:25 84.1 °F 69.2 °F 29.88 in WSW 4.0 mph 7.0 mph 61% 0.00 in
14:26 83.9 °F 69.0 °F 29.88 in WNW 3.0 mph 7.0 mph 61% 0.00 in
14:31 83.8 °F 69.9 °F 29.88 in WSW 4.0 mph 7.0 mph 63% 0.00 in
14:32 83.8 °F 69.9 °F 29.88 in SSW 4.0 mph 7.0 mph 63% 0.00 in
14:37 84.5 °F 70.5 °F 29.88 in WSW 6.0 mph 10.0 mph 63% 0.00 in
14:38 84.5 °F 69.1 °F 29.88 in SW 2.0 mph 10.0 mph 60% 0.00 in
14:43 84.7 °F 69.3 °F 29.89 in SW 5.0 mph 8.0 mph 60% 0.00 in
14:46 84.8 °F 70.8 °F 29.88 in WSW 4.0 mph 8.0 mph 63% 0.00 in
14:51 84.1 °F 69.7 °F 29.89 in West 4.0 mph 5.0 mph 62% 0.00 in
14:52 84.1 °F 69.7 °F 29.89 in WSW 4.0 mph 5.0 mph 62% 0.00 in
14:57 84.9 °F 70.4 °F 29.89 in SSW 3.0 mph 8.0 mph 62% 0.00 in
14:58 84.9 °F 70.4 °F 29.89 in SW 6.0 mph 8.0 mph 62% 0.00 in
15:03 84.9 °F 69.0 °F 29.89 in SW 4.0 mph 8.0 mph 59% 0.00 in
15:08 84.4 °F 68.0 °F 29.89 in South 3.0 mph 6.0 mph 58% 0.00 in
15:13 84.5 °F 69.1 °F 29.89 in West 3.0 mph 7.0 mph 60% 0.00 in
15:14 84.6 °F 68.7 °F 29.89 in West 4.0 mph 7.0 mph 59% 0.00 in
15:18 85.3 °F 69.4 °F 29.88 in South 3.0 mph 6.0 mph 59% 0.00 in
15:23 85.9 °F 69.4 °F 29.88 in SSE 2.0 mph 3.0 mph 58% 0.00 in
15:28 86.4 °F 68.9 °F 29.88 in SSW 5.0 mph 9.0 mph 56% 0.00 in
15:30 86.2 °F 68.7 °F 29.88 in WSW 4.0 mph 10.0 mph 56% 0.00 in
15:33 86.0 °F 69.5 °F 29.88 in SSW 4.0 mph 5.0 mph 58% 0.00 in
15:35 86.1 °F 69.6 °F 29.88 in SW 2.0 mph 5.0 mph 58% 0.00 in
15:37 86.3 °F 68.8 °F 29.87 in SSW 3.0 mph 6.0 mph 56% 0.00 in
15:41 86.1 °F 68.6 °F 29.87 in SW 3.0 mph 7.0 mph 56% 0.00 in
15:44 86.5 °F 69.5 °F 29.87 in SW 5.0 mph 5.0 mph 57% 0.00 in
15:46 86.6 °F 69.6 °F 29.87 in SW 6.0 mph 9.0 mph 57% 0.00 in
15:51 85.8 °F 68.3 °F 29.87 in SE 2.0 mph 7.0 mph 56% 0.00 in
15:56 85.0 °F 68.1 °F 29.87 in SSW 2.0 mph 6.0 mph 57% 0.00 in
15:57 85.0 °F 69.1 °F 29.86 in WSW 2.0 mph 6.0 mph 59% 0.00 in
15:59 85.2 °F 70.2 °F 29.86 in SSE 5.0 mph 5.0 mph 61% 0.00 in
16:01 85.5 °F 69.1 °F 29.86 in South 4.0 mph 8.0 mph 58% 0.00 in
16:03 85.7 °F 69.7 °F 29.86 in SW 7.0 mph 10.0 mph 59% 0.00 in
16:06 85.8 °F 69.8 °F 29.86 in SE 6.0 mph 8.0 mph 59% 0.00 in
16:11 86.0 °F 69.5 °F 29.86 in SSE 7.0 mph 10.0 mph 58% 0.00 in
16:16 86.5 °F 70.0 °F 29.86 in South 2.0 mph 5.0 mph 58% 0.00 in
16:21 86.6 °F 69.6 °F 29.86 in SW 4.0 mph 7.0 mph 57% 0.00 in
16:26 86.5 °F 67.3 °F 29.85 in SW 3.0 mph 9.0 mph 53% 0.00 in
16:27 86.5 °F 67.3 °F 29.85 in SW 3.0 mph 9.0 mph 53% 0.00 in
16:28 86.5 °F 67.9 °F 29.85 in SE 3.0 mph 7.0 mph 54% 0.00 in
16:32 86.4 °F 67.3 °F 29.85 in SSW 4.0 mph 9.0 mph 53% 0.00 in
16:33 86.4 °F 68.3 °F 29.85 in SSE 4.0 mph 9.0 mph 55% 0.00 in
16:38 86.5 °F 68.4 °F 29.85 in SSW 5.0 mph 9.0 mph 55% 0.00 in
16:43 86.4 °F 68.3 °F 29.85 in WSW 2.0 mph 7.0 mph 55% 0.00 in
16:44 86.4 °F 68.3 °F 29.85 in SSW 2.0 mph 7.0 mph 55% 0.00 in
16:49 86.3 °F 68.8 °F 29.85 in SSE 3.0 mph 6.0 mph 56% 0.00 in
16:54 86.6 °F 71.1 °F 29.85 in SW 6.0 mph 7.0 mph 60% 0.00 in
16:59 86.5 °F 69.0 °F 29.85 in SSW 6.0 mph 9.0 mph 56% 0.00 in
17:00 86.5 °F 69.0 °F 29.85 in SSE 5.0 mph 9.0 mph 56% 0.00 in
17:04 86.4 °F 68.3 °F 29.85 in SSW 5.0 mph 9.0 mph 55% 0.00 in
17:06 86.5 °F 70.5 °F 29.85 in South 3.0 mph 9.0 mph 59% 0.00 in
17:09 86.7 °F 70.2 °F 29.85 in South 3.0 mph 7.0 mph 58% 0.00 in
17:14 86.6 °F 68.5 °F 29.85 in WSW 9.0 mph 9.0 mph 55% 0.00 in
17:19 86.5 °F 67.9 °F 29.85 in SW 10.0 mph 10.0 mph 54% 0.00 in
17:24 86.5 °F 69.0 °F 29.84 in SW 8.0 mph 8.0 mph 56% 0.00 in
17:26 86.4 °F 68.3 °F 29.84 in SW 7.0 mph 10.0 mph 55% 0.00 in
17:30 86.3 °F 68.8 °F 29.84 in South 5.0 mph 11.0 mph 56% 0.00 in
17:31 86.3 °F 67.7 °F 29.84 in SE 3.0 mph 8.0 mph 54% 0.00 in
17:35 86.5 °F 67.3 °F 29.84 in South 2.0 mph 7.0 mph 53% 0.00 in
17:37 86.6 °F 68.0 °F 29.84 in SSW 4.0 mph 7.0 mph 54% 0.00 in
17:42 86.6 °F 68.0 °F 29.85 in SSW 5.0 mph 8.0 mph 54% 0.00 in
17:47 86.6 °F 67.4 °F 29.85 in South 2.0 mph 6.0 mph 53% 0.00 in
17:54 86.3 °F 67.7 °F 29.85 in South 6.0 mph 11.0 mph 54% 0.00 in
17:56 86.3 °F 67.7 °F 29.85 in SW 10.0 mph 10.0 mph 54% 0.00 in
18:02 86.2 °F 68.2 °F 29.84 in SSW 5.0 mph 8.0 mph 55% 0.00 in
18:07 86.3 °F 67.7 °F 29.84 in South 5.0 mph 8.0 mph 54% 0.00 in
18:12 86.5 °F 67.9 °F 29.84 in SE 4.0 mph 6.0 mph 54% 0.00 in
18:13 86.6 °F 68.5 °F 29.84 in SSW 4.0 mph 5.0 mph 55% 0.00 in
18:17 86.5 °F 68.4 °F 29.84 in WSW 9.0 mph 10.0 mph 55% 0.00 in
18:19 86.3 °F 67.7 °F 29.84 in South 4.0 mph 9.0 mph 54% 0.00 in
18:24 85.9 °F 68.9 °F 29.84 in SSW 7.0 mph 10.0 mph 57% 0.00 in
18:26 85.9 °F 67.3 °F 29.84 in South 6.0 mph 8.0 mph 54% 0.00 in
18:29 85.9 °F 67.9 °F 29.84 in SSW 5.0 mph 8.0 mph 55% 0.00 in
18:31 85.9 °F 67.9 °F 29.83 in SSW 5.0 mph 7.0 mph 55% 0.00 in
18:33 85.9 °F 67.9 °F 29.83 in South 4.0 mph 8.0 mph 55% 0.00 in
18:34 86.0 °F 68.0 °F 29.84 in SSW 3.0 mph 8.0 mph 55% 0.00 in
18:37 86.1 °F 68.1 °F 29.83 in South 4.0 mph 6.0 mph 55% 0.00 in
18:39 85.9 °F 68.9 °F 29.83 in South 5.0 mph 6.0 mph 57% 0.00 in
18:42 85.9 °F 67.9 °F 29.83 in SW 3.0 mph 10.0 mph 55% 0.00 in
18:48 85.7 °F 68.7 °F 29.83 in SW 6.0 mph 7.0 mph 57% 0.00 in
18:49 85.6 °F 67.6 °F 29.83 in SW 8.0 mph 8.0 mph 55% 0.00 in
18:54 85.4 °F 67.4 °F 29.83 in SSW 4.0 mph 9.0 mph 55% 0.00 in
18:55 85.3 °F 67.8 °F 29.83 in SSW 3.0 mph 9.0 mph 56% 0.00 in
18:56 85.3 °F 67.8 °F 29.83 in SW 3.0 mph 6.0 mph 56% 0.00 in
19:00 85.4 °F 67.9 °F 29.84 in SSW 3.0 mph 5.0 mph 56% 0.00 in
19:05 85.4 °F 69.4 °F 29.83 in SSW 3.0 mph 5.0 mph 59% 0.00 in
19:10 85.3 °F 68.9 °F 29.83 in SSW 2.0 mph 4.0 mph 58% 0.00 in
19:15 85.1 °F 69.2 °F 29.83 in South 3.0 mph 4.0 mph 59% 0.00 in
19:20 85.3 °F 68.9 °F 29.83 in SSE 2.0 mph 5.0 mph 58% 0.00 in
19:25 85.0 °F 69.1 °F 29.83 in SSW 3.0 mph 5.0 mph 59% 0.00 in
19:30 84.7 °F 68.8 °F 29.83 in SSE 3.0 mph 4.0 mph 59% 0.00 in
19:31 84.7 °F 68.8 °F 29.83 in SSW 4.0 mph 5.0 mph 59% 0.00 in
19:34 84.6 °F 68.7 °F 29.83 in SSE 2.0 mph 6.0 mph 59% 0.00 in
19:36 84.5 °F 68.6 °F 29.83 in South 2.0 mph 6.0 mph 59% 0.00 in
19:39 84.5 °F 69.1 °F 29.83 in SSW 2.0 mph 4.0 mph 60% 0.00 in
19:44 84.3 °F 68.9 °F 29.82 in SSW 2.0 mph 4.0 mph 60% 0.00 in
19:45 84.3 °F 68.9 °F 29.82 in SSE 5.0 mph 5.0 mph 60% 0.00 in
19:49 84.1 °F 68.7 °F 29.83 in South 2.0 mph 3.0 mph 60% 0.00 in
19:54 83.8 °F 68.9 °F 29.82 in South 2.0 mph 2.0 mph 61% 0.00 in
19:55 83.8 °F 68.9 °F 29.82 in South 1.0 mph 2.0 mph 61% 0.00 in
19:57 83.7 °F 68.8 °F 29.83 in SSE 1.0 mph 2.0 mph 61% 0.00 in
20:00 83.5 °F 68.7 °F 29.83 in SSE 1.0 mph 2.0 mph 61% 0.00 in
20:02 83.5 °F 68.7 °F 29.83 in SE 1.0 mph 2.0 mph 61% 0.00 in
20:06 83.2 °F 68.4 °F 29.83 in SSE 2.0 mph 4.0 mph 61% 0.00 in
20:11 82.8 °F 68.5 °F 29.83 in SSE 2.0 mph 2.0 mph 62% 0.00 in
20:12 82.8 °F 68.5 °F 29.83 in SSE 2.0 mph 2.0 mph 62% 0.00 in
20:16 82.2 °F 68.4 °F 29.83 in SE 2.0 mph 3.0 mph 63% 0.00 in
20:21 81.4 °F 68.5 °F 29.83 in SSE 2.0 mph 2.0 mph 65% 0.00 in
20:22 81.4 °F 68.5 °F 29.83 in SSE 2.0 mph 2.0 mph 65% 0.00 in
20:27 80.8 °F 67.9 °F 29.83 in SSE 2.0 mph 3.0 mph 65% 0.00 in
20:29 80.8 °F 68.4 °F 29.83 in South 1.0 mph 3.0 mph 66% 0.00 in
20:33 80.5 °F 68.1 °F 29.83 in South 2.0 mph 3.0 mph 66% 0.00 in
20:36 80.3 °F 67.9 °F 29.83 in SSE 2.0 mph 3.0 mph 66% 0.00 in
20:38 80.1 °F 67.7 °F 29.83 in South 3.0 mph 3.0 mph 66% 0.00 in
20:41 79.9 °F 68.0 °F 29.83 in SE 1.0 mph 3.0 mph 67% 0.00 in
20:46 79.5 °F 67.6 °F 29.83 in SSE 2.0 mph 3.0 mph 67% 0.00 in
20:51 79.2 °F 67.7 °F 29.84 in SSE 2.0 mph 3.0 mph 68% 0.00 in
20:52 79.2 °F 67.7 °F 29.84 in SSW 2.0 mph 3.0 mph 68% 0.00 in
20:53 79.1 °F 67.6 °F 29.84 in South 1.0 mph 2.0 mph 68% 0.00 in
20:56 78.8 °F 67.8 °F 29.83 in Calm   1.0 mph 69% 0.00 in
20:57 78.8 °F 67.8 °F 29.83 in Calm   1.0 mph 69% 0.00 in
20:59 78.6 °F 67.6 °F 29.83 in Calm   1.0 mph 69% 0.00 in
21:04 78.0 °F 67.8 °F 29.84 in Calm   1.0 mph 71% 0.00 in
21:09 77.4 °F 67.7 °F 29.84 in SSW 1.0 mph 1.0 mph 72% 0.00 in
21:14 77.0 °F 67.7 °F 29.84 in SSW 1.0 mph 2.0 mph 73% 0.00 in
21:19 76.7 °F 67.8 °F 29.84 in SW 2.0 mph 2.0 mph 74% 0.00 in
21:24 76.6 °F 67.7 °F 29.84 in SW 1.0 mph 2.0 mph 74% 0.00 in
21:29 76.2 °F 67.7 °F 29.84 in Calm   1.0 mph 75% 0.00 in
21:31 76.1 °F 67.6 °F 29.84 in South 1.0 mph 1.0 mph 75% 0.00 in
21:34 76.0 °F 67.5 °F 29.84 in SSW 1.0 mph 1.0 mph 75% 0.00 in
21:35 75.9 °F 67.4 °F 29.84 in SSE 1.0 mph 1.0 mph 75% 0.00 in
21:38 75.9 °F 67.4 °F 29.84 in South 1.0 mph 2.0 mph 75% 0.00 in
21:43 75.8 °F 67.7 °F 29.84 in SSW 1.0 mph 2.0 mph 76% 0.00 in
21:48 75.6 °F 67.5 °F 29.84 in SSW 2.0 mph 3.0 mph 76% 0.00 in
21:53 75.4 °F 67.7 °F 29.84 in SW 2.0 mph 2.0 mph 77% 0.00 in
21:54 75.3 °F 67.6 °F 29.84 in SW 1.0 mph 2.0 mph 77% 0.00 in
21:58 75.1 °F 67.4 °F 29.84 in SSW 1.0 mph 2.0 mph 77% 0.00 in
22:01 75.1 °F 67.4 °F 29.84 in SSW 2.0 mph 3.0 mph 77% 0.00 in
22:06 75.1 °F 67.4 °F 29.84 in SSE 1.0 mph 2.0 mph 77% 0.00 in
22:11 75.1 °F 67.4 °F 29.84 in SSE 2.0 mph 2.0 mph 77% 0.00 in
22:16 74.9 °F 67.6 °F 29.84 in SE 1.0 mph 1.0 mph 78% 0.00 in
22:23 74.6 °F 67.7 °F 29.84 in SE 1.0 mph 1.0 mph 79% 0.00 in
22:24 74.5 °F 67.6 °F 29.84 in Calm   1.0 mph 79% 0.00 in
22:28 74.3 °F 67.4 °F 29.84 in SE 1.0 mph 1.0 mph 79% 0.00 in
22:30 74.2 °F 67.3 °F 29.84 in SE 1.0 mph 1.0 mph 79% 0.00 in
22:31 74.1 °F 67.5 °F 29.84 in SE 1.0 mph 2.0 mph 80% 0.00 in
22:34 73.7 °F 67.2 °F 29.84 in SE 1.0 mph 1.0 mph 80% 0.00 in
22:35 73.5 °F 67.3 °F 29.84 in SE 1.0 mph 1.0 mph 81% 0.00 in
22:39 73.1 °F 67.3 °F 29.84 in South 1.0 mph 2.0 mph 82% 0.00 in
22:44 73.1 °F 67.3 °F 29.84 in SE 2.0 mph 2.0 mph 82% 0.00 in
22:49 73.3 °F 67.5 °F 29.84 in SE 1.0 mph 2.0 mph 82% 0.00 in
22:55 73.2 °F 67.4 °F 29.84 in SE 1.0 mph 2.0 mph 82% 0.00 in
22:58 73.2 °F 67.4 °F 29.84 in SSE 2.0 mph 2.0 mph 82% 0.00 in
23:03 73.2 °F 67.0 °F 29.84 in Calm     81% 0.00 in
23:05 73.0 °F 67.2 °F 29.84 in SSE 1.0 mph 1.0 mph 82% 0.00 in
23:10 73.0 °F 67.2 °F 29.84 in Calm   1.0 mph 82% 0.00 in
23:15 72.7 °F 66.9 °F 29.84 in Calm     82% 0.00 in
23:20 72.6 °F 66.8 °F 29.84 in SE 2.0 mph 2.0 mph 82% 0.00 in
23:21 72.6 °F 66.8 °F 29.84 in SSE 3.0 mph 3.0 mph 82% 0.00 in
23:26 72.6 °F 66.8 °F 29.84 in SSE 2.0 mph 3.0 mph 82% 0.00 in
23:31 72.7 °F 66.9 °F 29.84 in South 3.0 mph 3.0 mph 82% 0.00 in
23:33 72.7 °F 66.9 °F 29.84 in SSE 2.0 mph 3.0 mph 82% 0.00 in
23:37 72.8 °F 67.0 °F 29.84 in SE 2.0 mph 3.0 mph 82% 0.00 in
23:42 72.8 °F 67.0 °F 29.84 in SSE 2.0 mph 3.0 mph 82% 0.00 in
23:47 72.8 °F 67.0 °F 29.84 in SSE 2.0 mph 3.0 mph 82% 0.00 in
23:56 72.7 °F 66.9 °F 29.84 in SSE 2.0 mph 3.0 mph 82% 0.00 in
23:57 72.7 °F 66.9 °F 29.84 in SSE 2.0 mph 3.0 mph 82% 0.00 in
Compliments of Weather Underground